TELSTAR 11N

Last updated on Sat Nov 01 2025 00:02:46 GMT+0000 (Coordinated Universal Time)

1 34111U 09009A 25304.50669904 .00000000 00000+0 00000+0 0 9999 2 34111 0.0178 247.8447 0002587 317.0166 340.0421 1.00267478 43950
UTC large
Height (km)
Speed (km/s)
/
Latitude / Longitude
Inclination (degrees)
Orbital Period (minutes)
Azimuth
Elevation
Range (km)
Doppler Factor

Next 0 passes for location: London (51.5072 / 0.1276)

Sorry there are no passes over London.